| time (UTC) | temp C | wind direction | speed KPH | gust KPH | rain 1hr cm | rain 24hr cm | rain mn cm | humidity % | barometer mb |
| 20260506070112 | 12 | 0 | 12.9 | 29.0 | 0.00 | 0.00 | 0.00 | 81 | 1009.6 |
| 20260506062111 | 11 | 0 | 9.7 | 22.5 | 0.00 | 0.00 | 0.00 | 84 | 1009.5 |
| 20260506061610 | 11 | 0 | 9.7 | 19.3 | 0.00 | 0.00 | 0.00 | 84 | 1009.5 |
| 20260506061112 | 11 | 0 | 6.4 | 22.5 | 0.00 | 0.00 | 0.00 | 84 | 1009.5 |
| 20260506060610 | 11 | 0 | 12.9 | 22.5 | 0.00 | 0.00 | 0.00 | 84 | 1009.5 |
| 20260506060110 | 11 | 0 | 12.9 | 22.5 | 0.00 | 0.00 | 0.00 | 84 | 1009.4 |
| 20260506051110 | 10 | 0.0 | 0.0 | 0.00 | 0.00 | 0.00 | 84 | 1009.5 | |
| 20260506050609 | 10 | 0.0 | 0.0 | 0.00 | 0.00 | 0.00 | 85 | 1009.4 | |
| 20260506050108 | 10 | 0.0 | 0.0 | 0.00 | 0.00 | 0.00 | 85 | 1009.5 | |
| 20260506044607 | 10 | 0 | 8.0 | 11.3 | 0.00 | 0.00 | 0.00 | 85 | 1009.6 |
| 20260506044104 | 10 | 0 | 8.0 | 16.1 | 0.00 | 0.00 | 0.00 | 85 | 1009.6 |
| 20260506044051 | 10 | 0 | 9.7 | 16.1 | 0.00 | 0.00 | 0.00 | 85 | 1009.6 |
| 20260506043326 | 10 | 0 | 9.7 | 14.5 | 0.00 | 0.00 | 0.00 | 85 | 1009.6 |
| 20260506042604 | 10 | 0 | 6.4 | 14.5 | 0.00 | 0.00 | 0.00 | 85 | 1009.6 |
| 20260506042104 | 10 | 0 | 6.4 | 16.1 | 0.00 | 0.00 | 0.00 | 85 | 1009.7 |
| 20260506041603 | 10 | 0 | 6.4 | 16.1 | 0.00 | 0.00 | 0.00 | 85 | 1009.6 |
| 20260506041102 | 10 | 0 | 8.0 | 16.1 | 0.00 | 0.00 | 0.00 | 85 | 1009.7 |
| 20260506040603 | 10 | 0 | 6.4 | 17.7 | 0.00 | 0.00 | 0.00 | 85 | 1009.6 |
| 20260506035606 | 10 | 0 | 8.0 | 19.3 | 0.00 | 0.00 | 0.00 | 85 | 1009.6 |
| 20260506035103 | 10 | 0 | 9.7 | 19.3 | 0.00 | 0.00 | 0.00 | 85 | 1009.6 |
| 20260506034602 | 10 | 0 | 9.7 | 17.7 | 0.00 | 0.00 | 0.00 | 85 | 1009.6 |
| 20260506034101 | 10 | 0 | 6.4 | 17.7 | 0.00 | 0.00 | 0.00 | 85 | 1009.7 |
| 20260506033601 | 10 | 0 | 6.4 | 16.1 | 0.00 | 0.00 | 0.00 | 85 | 1009.7 |
| 20260506033102 | 10 | 0 | 6.4 | 16.1 | 0.00 | 0.00 | 0.00 | 85 | 1009.6 |
| 20260506032603 | 10 | 0 | 8.0 | 17.7 | 0.00 | 0.00 | 0.00 | 85 | 1009.7 |
| 20260506032327 | 10 | 0 | 8.0 | 17.7 | 0.00 | 0.00 | 0.00 | 85 | 1009.8 |
| 20260506031603 | 10 | 0 | 8.0 | 16.1 | 0.00 | 0.00 | 0.00 | 85 | 1009.7 |
| 20260506031330 | 10 | 0 | 9.7 | 16.1 | 0.00 | 0.00 | 0.00 | 85 | 1009.7 |
| 20260506030603 | 10 | 0 | 6.4 | 16.1 | 0.00 | 0.00 | 0.00 | 85 | 1009.9 |
| 20260506030331 | 10 | 0 | 6.4 | 16.1 | 0.00 | 0.00 | 0.00 | 85 | 1009.8 |
| 20260506025601 | 10 | 0 | 8.0 | 14.5 | 0.00 | 0.00 | 0.00 | 85 | 1009.9 |
| 20260506025557 | 10 | 0 | 8.0 | 16.1 | 0.00 | 0.00 | 0.00 | 85 | 1009.8 |
| 20260506024601 | 10 | 0 | 9.7 | 16.1 | 0.00 | 0.00 | 0.00 | 85 | 1010.0 |
| 20260506024100 | 9 | 0 | 8.0 | 16.1 | 0.00 | 0.00 | 0.00 | 85 | 1010.0 |
| 20260506023559 | 9 | 0 | 8.0 | 16.1 | 0.00 | 0.00 | 0.00 | 85 | 1009.9 |
| 20260506023101 | 9 | 0 | 8.0 | 14.5 | 0.00 | 0.00 | 0.00 | 85 | 1009.9 |
| 20260506022600 | 9 | 0 | 9.7 | 14.5 | 0.00 | 0.00 | 0.00 | 85 | 1010.0 |
| 20260506022100 | 9 | 0 | 8.0 | 14.5 | 0.00 | 0.00 | 0.00 | 84 | 1009.9 |
| 20260506021601 | 9 | 0 | 9.7 | 16.1 | 0.00 | 0.00 | 0.00 | 85 | 1010.1 |
| 20260506021100 | 9 | 0 | 4.8 | 16.1 | 0.00 | 0.00 | 0.00 | 84 | 1010.0 |
| 20260506020600 | 9 | 0 | 8.0 | 16.1 | 0.00 | 0.00 | 0.00 | 84 | 1010.0 |
| 20260506020324 | 9 | 0 | 8.0 | 14.5 | 0.00 | 0.00 | 0.00 | 84 | 1010.0 |
| 20260506015602 | 9 | 0 | 6.4 | 11.3 | 0.00 | 0.00 | 0.00 | 84 | 1010.1 |
| 20260506015059 | 9 | 0 | 6.4 | 11.3 | 0.00 | 0.00 | 0.00 | 84 | 1010.2 |
| 20260506014559 | 9 | 0 | 6.4 | 16.1 | 0.00 | 0.00 | 0.00 | 84 | 1010.2 |
| 20260506014059 | 9 | 0 | 9.7 | 16.1 | 0.00 | 0.00 | 0.00 | 84 | 1010.1 |
| 20260506013558 | 9 | 0 | 3.2 | 11.3 | 0.00 | 0.00 | 0.00 | 84 | 1010.2 |
| 20260506013550 | 9 | 0 | 8.0 | 20.9 | 0.00 | 0.00 | 0.00 | 84 | 1010.3 |
| 20260506012558 | 9 | 0 | 6.4 | 20.9 | 0.00 | 0.00 | 0.00 | 84 | 1010.2 |
| 20260506012320 | 9 | 0 | 8.0 | 17.7 | 0.00 | 0.00 | 0.00 | 84 | 1010.2 |
| 20260506011559 | 9 | 0 | 8.0 | 17.7 | 0.00 | 0.00 | 0.00 | 84 | 1010.4 |
| 20260506011059 | 9 | 0 | 11.3 | 16.1 | 0.00 | 0.00 | 0.00 | 84 | 1010.3 |
| 20260506010558 | 9 | 0 | 8.0 | 14.5 | 0.00 | 0.00 | 0.00 | 84 | 1010.3 |
| 20260506010058 | 9 | 0 | 8.0 | 14.5 | 0.00 | 0.00 | 0.00 | 84 | 1010.4 |
| 20260506005559 | 9 | 0 | 8.0 | 16.1 | 0.00 | 0.00 | 0.00 | 84 | 1010.4 |
| 20260506005324 | 9 | 0 | 4.8 | 16.1 | 0.00 | 0.00 | 0.00 | 84 | 1010.4 |
| 20260506004556 | 9 | 0 | 6.4 | 14.5 | 0.00 | 0.00 | 0.00 | 84 | 1010.5 |
| 20260506004058 | 9 | 0 | 8.0 | 16.1 | 0.00 | 0.00 | 0.00 | 84 | 1010.6 |
| 20260506003557 | 9 | 0 | 9.7 | 16.1 | 0.00 | 0.00 | 0.00 | 84 | 1010.6 |
| 20260506003057 | 9 | 0 | 6.4 | 17.7 | 0.00 | 0.00 | 0.00 | 84 | 1010.6 |
| 20260506002558 | 9 | 0 | 6.4 | 17.7 | 0.00 | 0.00 | 0.00 | 84 | 1010.7 |
| 20260506002057 | 9 | 0 | 8.0 | 16.1 | 0.00 | 0.00 | 0.00 | 85 | 1010.7 |
| 20260506001558 | 9 | 0 | 4.8 | 16.1 | 0.00 | 0.00 | 0.00 | 85 | 1010.9 |
| 20260506001548 | 9 | 0 | 6.4 | 16.1 | 0.00 | 0.00 | 0.00 | 85 | 1010.9 |
| 20260506000556 | 8 | 0 | 6.4 | 11.3 | 0.00 | 0.00 | 0.00 | 85 | 1010.8 |
| 20260506000057 | 8 | 0 | 6.4 | 19.3 | 0.00 | 0.00 | 0.00 | 85 | 1011.0 |
| 20260505235558 | 8 | 0 | 9.7 | 19.3 | 0.00 | 0.00 | 0.00 | 85 | 1011.0 |
| 20260505235327 | 8 | 0 | 6.4 | 14.5 | 0.00 | 0.00 | 0.00 | 85 | 1011.0 |
| 20260505234824 | 8 | 0 | 8.0 | 14.5 | 0.00 | 0.00 | 0.00 | 84 | 1011.1 |
| 20260505234056 | 9 | 0 | 6.4 | 14.5 | 0.00 | 0.00 | 0.00 | 85 | 1011.1 |
| 20260505233558 | 9 | 0 | 3.2 | 16.1 | 0.00 | 0.00 | 0.00 | 85 | 1011.2 |
| 20260505233056 | 9 | 0 | 8.0 | 16.1 | 0.00 | 0.00 | 0.00 | 85 | 1011.2 |
| 20260505232555 | 9 | 0 | 6.4 | 8.0 | 0.00 | 0.00 | 0.00 | 84 | 1011.2 |
| 20260505232320 | 9 | 0 | 4.8 | 11.3 | 0.00 | 0.00 | 0.00 | 84 | 1011.3 |
| 20260505231556 | 9 | 0 | 8.0 | 11.3 | 0.00 | 0.00 | 0.00 | 84 | 1011.3 |
| 20260505231055 | 8 | 0 | 6.4 | 11.3 | 0.00 | 0.00 | 0.00 | 83 | 1011.4 |
| 20260505230555 | 8 | 0 | 4.8 | 11.3 | 0.00 | 0.00 | 0.00 | 83 | 1011.4 |
| 20260505230055 | 8 | 0 | 6.4 | 11.3 | 0.00 | 0.00 | 0.00 | 83 | 1011.3 |
| 20260505225556 | 8 | 0 | 6.4 | 11.3 | 0.00 | 0.00 | 0.00 | 83 | 1011.3 |
| 20260505225055 | 8 | 0 | 6.4 | 11.3 | 0.00 | 0.00 | 0.00 | 83 | 1011.3 |
| 20260505224555 | 8 | 0 | 6.4 | 11.3 | 0.00 | 0.00 | 0.00 | 83 | 1011.3 |
| 20260505224054 | 8 | 0 | 6.4 | 11.3 | 0.00 | 0.00 | 0.00 | 83 | 1011.3 |
| 20260505223549 | 8 | 0 | 6.4 | 11.3 | 0.00 | 0.00 | 0.00 | 83 | 1011.3 |
| 20260505223049 | 8 | 0 | 4.8 | 11.3 | 0.00 | 0.00 | 0.00 | 83 | 1011.4 |
| 20260505222821 | 8 | 0 | 8.0 | 9.7 | 0.00 | 0.00 | 0.00 | 83 | 1011.4 |
| 20260505222047 | 8 | 0 | 8.0 | 9.7 | 0.00 | 0.00 | 0.00 | 83 | 1011.5 |
| 20260505221546 | 8 | 0 | 8.0 | 9.7 | 0.00 | 0.00 | 0.00 | 83 | 1011.4 |
| 20260505221046 | 8 | 0 | 8.0 | 9.7 | 0.00 | 0.00 | 0.00 | 83 | 1011.5 |
| 20260505220545 | 8 | 0 | 4.8 | 9.7 | 0.00 | 0.00 | 0.00 | 83 | 1011.6 |
| 20260505220047 | 9 | 0 | 4.8 | 9.7 | 0.00 | 0.00 | 0.00 | 83 | 1011.6 |
| 20260505215544 | 9 | 0 | 6.4 | 16.1 | 0.00 | 0.00 | 0.00 | 83 | 1011.6 |
| 20260505215043 | 9 | 0 | 8.0 | 16.1 | 0.00 | 0.00 | 0.00 | 83 | 1011.7 |
| 20260505214543 | 9 | 0 | 6.4 | 11.3 | 0.00 | 0.00 | 0.00 | 83 | 1011.8 |
| 20260505214042 | 9 | 0 | 8.0 | 16.1 | 0.00 | 0.00 | 0.00 | 82 | 1011.7 |
| 20260505213806 | 9 | 0 | 4.8 | 16.1 | 0.00 | 0.00 | 0.00 | 82 | 1011.7 |
| 20260505213041 | 9 | 0 | 6.4 | 16.1 | 0.00 | 0.00 | 0.00 | 82 | 1011.8 |
| 20260505212542 | 9 | 0 | 6.4 | 11.3 | 0.00 | 0.00 | 0.00 | 82 | 1011.7 |
| 20260505212040 | 9 | 0 | 6.4 | 11.3 | 0.00 | 0.00 | 0.00 | 82 | 1011.8 |
| 20260505211540 | 9 | 0 | 6.4 | 14.5 | 0.00 | 0.00 | 0.00 | 82 | 1011.9 |
| 20260505211039 | 9 | 0 | 8.0 | 14.5 | 0.00 | 0.00 | 0.00 | 82 | 1011.8 |
| 20260505210538 | 9 | 0 | 6.4 | 14.5 | 0.00 | 0.00 | 0.00 | 82 | 1011.9 |
| 20260505210039 | 9 | 0 | 6.4 | 11.3 | 0.00 | 0.00 | 0.00 | 82 | 1011.8 |
| 20260505205539 | 9 | 0 | 6.4 | 11.3 | 0.00 | 0.00 | 0.00 | 81 | 1011.9 |
| 20260505205257 | 9 | 0 | 4.8 | 11.3 | 0.00 | 0.00 | 0.00 | 81 | 1012.0 |
| 20260505204535 | 9 | 0 | 3.2 | 17.7 | 0.00 | 0.00 | 0.00 | 81 | 1011.9 |
| 20260505204034 | 9 | 0 | 6.4 | 17.7 | 0.00 | 0.00 | 0.00 | 81 | 1011.8 |
| 20260505203535 | 9 | 0 | 8.0 | 16.1 | 0.00 | 0.00 | 0.00 | 80 | 1011.9 |
| 20260505203033 | 9 | 0 | 6.4 | 20.9 | 0.00 | 0.00 | 0.00 | 80 | 1011.9 |
| 20260505202531 | 9 | 0 | 6.4 | 20.9 | 0.00 | 0.00 | 0.00 | 80 | 1011.8 |
| 20260505202031 | 10 | 0 | 8.0 | 17.7 | 0.00 | 0.00 | 0.00 | 80 | 1011.8 |
| 20260505201531 | 10 | 0 | 6.4 | 17.7 | 0.00 | 0.00 | 0.00 | 80 | 1011.7 |
| 20260505201255 | 10 | 0 | 6.4 | 11.3 | 0.00 | 0.00 | 0.00 | 80 | 1011.7 |
| 20260505200530 | 10 | 0 | 4.8 | 14.5 | 0.00 | 0.00 | 0.00 | 80 | 1011.7 |
| 20260505200031 | 10 | 0 | 6.4 | 19.3 | 0.00 | 0.00 | 0.00 | 80 | 1011.7 |
| 20260505195533 | 10 | 0 | 11.3 | 19.3 | 0.00 | 0.00 | 0.00 | 80 | 1011.6 |
| 20260505195031 | 10 | 0 | 9.7 | 17.7 | 0.00 | 0.00 | 0.00 | 80 | 1011.7 |
| 20260505194538 | 10 | 0 | 8.0 | 19.3 | 0.00 | 0.00 | 0.00 | 80 | 1011.5 |
| 20260505194531 | 10 | 0 | 9.7 | 19.3 | 0.00 | 0.00 | 0.00 | 79 | 1011.6 |
| 20260505193756 | 10 | 0 | 9.7 | 19.3 | 0.00 | 0.00 | 0.00 | 79 | 1011.5 |
| 20260505193031 | 10 | 0 | 11.3 | 20.9 | 0.00 | 0.00 | 0.00 | 79 | 1011.5 |
| 20260505192532 | 10 | 0 | 11.3 | 20.9 | 0.00 | 0.00 | 0.00 | 80 | 1011.4 |
| 20260505192030 | 10 | 0 | 9.7 | 17.7 | 0.00 | 0.00 | 0.00 | 80 | 1011.4 |
| 20260505191531 | 10 | 0 | 9.7 | 19.3 | 0.00 | 0.00 | 0.00 | 80 | 1011.5 |
| 20260505191031 | 10 | 0 | 12.9 | 22.5 | 0.00 | 0.00 | 0.00 | 80 | 1011.4 |
| 20260505190531 | 10 | 0 | 11.3 | 22.5 | 0.00 | 0.00 | 0.00 | 80 | 1011.4 |
| 20260505190031 | 10 | 0 | 6.4 | 16.1 | 0.00 | 0.00 | 0.00 | 80 | 1011.3 |
| 20260505185754 | 10 | 0 | 3.2 | 17.7 | 0.00 | 0.00 | 0.00 | 80 | 1011.3 |
| 20260505185032 | 10 | 0 | 9.7 | 17.7 | 0.00 | 0.00 | 0.00 | 80 | 1011.3 |
| 20260505184531 | 11 | 0 | 6.4 | 17.7 | 0.00 | 0.00 | 0.00 | 80 | 1011.3 |
| 20260505184031 | 11 | 0 | 6.4 | 22.5 | 0.00 | 0.00 | 0.00 | 80 | 1011.3 |
| 20260505183531 | 11 | 0 | 8.0 | 22.5 | 0.00 | 0.00 | 0.00 | 79 | 1011.4 |
| 20260505183031 | 11 | 0 | 6.4 | 17.7 | 0.00 | 0.00 | 0.00 | 79 | 1011.4 |
| 20260505182757 | 11 | 0 | 8.0 | 17.7 | 0.00 | 0.00 | 0.00 | 79 | 1011.4 |
| 20260505182032 | 11 | 0 | 6.4 | 22.5 | 0.00 | 0.00 | 0.00 | 79 | 1011.4 |
| 20260505181532 | 11 | 0 | 12.9 | 22.5 | 0.00 | 0.00 | 0.00 | 78 | 1011.4 |
| 20260505181032 | 11 | 0 | 8.0 | 19.3 | 0.00 | 0.00 | 0.00 | 79 | 1011.3 |
| 20260505180759 | 11 | 0 | 9.7 | 24.1 | 0.00 | 0.00 | 0.00 | 79 | 1011.4 |
| 20260505180033 | 11 | 0 | 8.0 | 24.1 | 0.00 | 0.00 | 0.00 | 78 | 1011.4 |
| 20260505175530 | 11 | 0 | 11.3 | 22.5 | 0.00 | 0.00 | 0.00 | 78 | 1011.4 |
| 20260505175031 | 11 | 0 | 11.3 | 22.5 | 0.00 | 0.00 | 0.00 | 78 | 1011.4 |
| 20260505174531 | 12 | 0 | 9.7 | 20.9 | 0.00 | 0.00 | 0.00 | 78 | 1011.4 |
| 20260505174031 | 12 | 0 | 11.3 | 22.5 | 0.00 | 0.00 | 0.00 | 78 | 1011.4 |
| 20260505173535 | 12 | 0 | 6.4 | 22.5 | 0.00 | 0.00 | 0.00 | 78 | 1011.3 |
| 20260505173529 | 12 | 0 | 11.3 | 27.4 | 0.00 | 0.00 | 0.00 | 77 | 1011.3 |
| 20260505172530 | 12 | 0 | 8.0 | 27.4 | 0.00 | 0.00 | 0.00 | 77 | 1011.3 |
| 20260505172031 | 12 | 0 | 14.5 | 27.4 | 0.00 | 0.00 | 0.00 | 76 | 1011.3 |
| 20260505171532 | 12 | 0 | 12.9 | 27.4 | 0.00 | 0.00 | 0.00 | 77 | 1011.2 |
| 20260505171031 | 12 | 0 | 16.1 | 27.4 | 0.00 | 0.00 | 0.00 | 76 | 1011.2 |
| 20260505170531 | 12 | 0 | 14.5 | 27.4 | 0.00 | 0.00 | 0.00 | 76 | 1011.3 |
| 20260505170032 | 12 | 0 | 12.9 | 25.7 | 0.00 | 0.00 | 0.00 | 76 | 1011.2 |
| 20260505165805 | 12 | 0 | 11.3 | 25.7 | 0.00 | 0.00 | 0.00 | 75 | 1011.2 |
| 20260505165031 | 12 | 0 | 8.0 | 22.5 | 0.00 | 0.00 | 0.00 | 76 | 1011.3 |
| 20260505164801 | 13 | 0 | 9.7 | 24.1 | 0.00 | 0.00 | 0.00 | 75 | 1011.4 |
| 20260505164033 | 13 | 0 | 14.5 | 25.7 | 0.00 | 0.00 | 0.00 | 75 | 1011.3 |
| 20260505163531 | 13 | 0 | 12.9 | 25.7 | 0.00 | 0.00 | 0.00 | 75 | 1011.3 |
| 20260505163258 | 13 | 0 | 12.9 | 24.1 | 0.00 | 0.00 | 0.00 | 74 | 1011.3 |
| 20260505162802 | 13 | 0 | 12.9 | 22.5 | 0.00 | 0.00 | 0.00 | 74 | 1011.4 |
| 20260505162032 | 13 | 0 | 8.0 | 24.1 | 0.00 | 0.00 | 0.00 | 75 | 1011.2 |
| 20260505161532 | 13 | 0 | 14.5 | 25.7 | 0.00 | 0.00 | 0.00 | 74 | 1011.3 |
| 20260505161031 | 13 | 0 | 12.9 | 25.7 | 0.00 | 0.00 | 0.00 | 74 | 1011.3 |
| 20260505160757 | 13 | 0 | 11.3 | 25.7 | 0.00 | 0.00 | 0.00 | 73 | 1011.4 |
| 20260505153031 | 13 | 0 | 12.9 | 25.7 | 0.00 | 0.00 | 0.00 | 73 | 1011.4 |
| 20260505152531 | 13 | 0 | 11.3 | 24.1 | 0.00 | 0.00 | 0.00 | 74 | 1011.4 |
| 20260505152031 | 13 | 0 | 11.3 | 20.9 | 0.00 | 0.00 | 0.00 | 74 | 1011.3 |
| 20260505151531 | 13 | 0 | 12.9 | 24.1 | 0.00 | 0.00 | 0.00 | 74 | 1011.4 |
| 20260505151031 | 13 | 0 | 14.5 | 24.1 | 0.00 | 0.00 | 0.00 | 74 | 1011.4 |
| 20260505150533 | 13 | 0 | 14.5 | 27.4 | 0.00 | 0.00 | 0.00 | 73 | 1011.3 |
| 20260505125033 | 15 | 0 | 11.3 | 24.1 | 0.00 | 0.00 | 0.00 | 72 | 1011.8 |
| 20260505124530 | 15 | 0 | 8.0 | 25.7 | 0.00 | 0.00 | 0.00 | 71 | 1011.9 |
| 20260505124031 | 15 | 0 | 12.9 | 25.7 | 0.00 | 0.00 | 0.00 | 70 | 1012.0 |
| 20260505123534 | 15 | 0 | 11.3 | 24.1 | 0.00 | 0.00 | 0.00 | 72 | 1011.9 |
| 20260505123031 | 14 | 0 | 12.9 | 22.5 | 0.00 | 0.00 | 0.00 | 70 | 1012.0 |
| 20260505122531 | 14 | 0 | 9.7 | 22.5 | 0.00 | 0.00 | 0.00 | 71 | 1012.1 |
| 20260505122031 | 15 | 0 | 14.5 | 22.5 | 0.00 | 0.00 | 0.00 | 71 | 1012.1 |
| 20260505121531 | 15 | 0 | 9.7 | 24.1 | 0.00 | 0.00 | 0.00 | 72 | 1012.2 |
| 20260505121032 | 15 | 0 | 9.7 | 24.1 | 0.00 | 0.00 | 0.00 | 71 | 1012.1 |
| 20260505120530 | 14 | 0 | 9.7 | 29.0 | 0.00 | 0.00 | 0.00 | 71 | 1012.0 |
| 20260505120031 | 14 | 0 | 11.3 | 29.0 | 0.00 | 0.00 | 0.00 | 72 | 1012.0 |
| 20260505115531 | 14 | 0 | 9.7 | 22.5 | 0.00 | 0.00 | 0.00 | 73 | 1012.0 |
| 20260505115031 | 14 | 0 | 6.4 | 24.1 | 0.00 | 0.00 | 0.00 | 73 | 1012.2 |
| 20260505114531 | 14 | 0 | 14.5 | 24.1 | 0.00 | 0.00 | 0.00 | 72 | 1012.1 |
| 20260505114031 | 14 | 0 | 11.3 | 29.0 | 0.00 | 0.00 | 0.00 | 72 | 1012.1 |
| 20260505113531 | 14 | 0 | 14.5 | 29.0 | 0.00 | 0.00 | 0.00 | 72 | 1012.2 |
| 20260505113031 | 14 | 0 | 11.3 | 24.1 | 0.00 | 0.00 | 0.00 | 72 | 1012.2 |
| 20260505112532 | 14 | 0 | 12.9 | 24.1 | 0.00 | 0.00 | 0.00 | 73 | 1012.3 |
| 20260505112031 | 14 | 0 | 8.0 | 19.3 | 0.00 | 0.00 | 0.00 | 74 | 1012.3 |
| 20260505111531 | 13 | 0 | 6.4 | 22.5 | 0.00 | 0.00 | 0.00 | 75 | 1012.4 |
| 20260505111033 | 13 | 0 | 12.9 | 22.5 | 0.00 | 0.00 | 0.00 | 75 | 1012.4 |
| 20260505110746 | 13 | 0 | 12.9 | 22.5 | 0.00 | 0.00 | 0.00 | 75 | 1012.5 |
| 20260505110725 | 13 | 0 | 11.3 | 22.5 | 0.00 | 0.00 | 0.00 | 75 | 1012.5 |
| 20260505102024 | 14 | 0 | 14.5 | 22.5 | 0.00 | 0.00 | 0.00 | 74 | 1012.7 |
| 20260505101526 | 14 | 0 | 14.5 | 24.1 | 0.00 | 0.00 | 0.00 | 73 | 1012.7 |
| 20260505101026 | 14 | 0 | 12.9 | 24.1 | 0.00 | 0.00 | 0.00 | 75 | 1012.7 |
| 20260505100525 | 14 | 0 | 8.0 | 25.7 | 0.00 | 0.00 | 0.00 | 74 | 1012.7 |
| 20260505100027 | 14 | 0 | 9.7 | 25.7 | 0.00 | 0.00 | 0.00 | 75 | 1012.7 |
| 20260505095525 | 13 | 0 | 8.0 | 30.6 | 0.00 | 0.00 | 0.00 | 75 | 1012.7 |
| 20260505095025 | 13 | 0 | 17.7 | 30.6 | 0.00 | 0.00 | 0.00 | 75 | 1012.8 |
| 20260505094525 | 13 | 0 | 9.7 | 27.4 | 0.00 | 0.00 | 0.00 | 76 | 1012.8 |
| 20260505094253 | 13 | 0 | 11.3 | 27.4 | 0.00 | 0.00 | 0.00 | 74 | 1012.8 |
| 20260505093525 | 13 | 0 | 12.9 | 22.5 | 0.00 | 0.00 | 0.00 | 75 | 1012.8 |
| 20260505093252 | 13 | 0 | 11.3 | 25.7 | 0.00 | 0.00 | 0.00 | 75 | 1012.7 |
| 20260505092523 | 13 | 0 | 9.7 | 25.7 | 0.00 | 0.00 | 0.00 | 76 | 1012.7 |
| 20260505092023 | 13 | 0 | 9.7 | 27.4 | 0.00 | 0.00 | 0.00 | 77 | 1012.6 |
| 20260505091522 | 13 | 0 | 12.9 | 30.6 | 0.00 | 0.00 | 0.00 | 75 | 1012.5 |
| 20260505091023 | 13 | 0 | 11.3 | 30.6 | 0.00 | 0.00 | 0.00 | 75 | 1012.5 |
| 20260505090522 | 13 | 0 | 11.3 | 25.7 | 0.00 | 0.00 | 0.00 | 75 | 1012.5 |
| 20260505090025 | 13 | 0 | 12.9 | 24.1 | 0.00 | 0.00 | 0.00 | 77 | 1012.5 |
| 20260505085522 | 13 | 0 | 12.9 | 24.1 | 0.00 | 0.00 | 0.00 | 76 | 1012.5 |
| 20260505085023 | 13 | 0 | 8.0 | 24.1 | 0.00 | 0.00 | 0.00 | 77 | 1012.6 |
| 20260505084519 | 12 | 0 | 11.3 | 24.1 | 0.00 | 0.00 | 0.00 | 76 | 1012.5 |
| 20260505084245 | 12 | 0 | 14.5 | 25.7 | 0.00 | 0.00 | 0.00 | 76 | 1012.5 |
| 20260505083517 | 12 | 0 | 14.5 | 25.7 | 0.00 | 0.00 | 0.00 | 76 | 1012.7 |
| 20260505083242 | 12 | 0 | 9.7 | 22.5 | 0.00 | 0.00 | 0.00 | 78 | 1012.8 |
| 20260505082746 | 12 | 0 | 9.7 | 20.9 | 0.00 | 0.00 | 0.00 | 78 | 1012.7 |
| 20260505082014 | 12 | 0 | 11.3 | 20.9 | 0.00 | 0.00 | 0.00 | 79 | 1012.7 |
| 20260505081514 | 11 | 0 | 9.7 | 20.9 | 0.00 | 0.00 | 0.00 | 79 | 1012.8 |
| 20260505081014 | 11 | 0 | 9.7 | 20.9 | 0.00 | 0.00 | 0.00 | 79 | 1012.9 |
| 20260505080513 | 11 | 0 | 9.7 | 19.3 | 0.00 | 0.00 | 0.00 | 78 | 1012.9 |
| 20260505080012 | 11 | 0 | 8.0 | 22.5 | 0.00 | 0.00 | 0.00 | 78 | 1012.9 |
| 20260505075511 | 12 | 0 | 11.3 | 24.1 | 0.00 | 0.00 | 0.00 | 77 | 1012.9 |
| 20260505075015 | 12 | 0 | 11.3 | 24.1 | 0.00 | 0.00 | 0.00 | 79 | 1013.0 |
| 20260505074513 | 12 | 0 | 14.5 | 24.1 | 0.00 | 0.00 | 0.00 | 78 | 1012.9 |
| 20260505074013 | 12 | 0 | 12.9 | 22.5 | 0.00 | 0.00 | 0.00 | 79 | 1013.0 |
| 20260505073510 | 11 | 0 | 12.9 | 22.5 | 0.00 | 0.00 | 0.00 | 78 | 1013.0 |
| 20260505073008 | 11 | 0 | 11.3 | 22.5 | 0.00 | 0.00 | 0.00 | 79 | 1013.0 |
| 20260505072508 | 11 | 0 | 6.4 | 20.9 | 0.00 | 0.00 | 0.00 | 80 | 1013.0 |
| 20260505072008 | 11 | 0 | 11.3 | 20.9 | 0.00 | 0.00 | 0.00 | 81 | 1012.9 |
| 20260505071509 | 11 | 0 | 9.7 | 24.1 | 0.00 | 0.00 | 0.00 | 81 | 1013.2 |
| 20260505071006 | 10 | 0 | 11.3 | 24.1 | 0.00 | 0.00 | 0.00 | 80 | 1013.3 |